Time,TemperatureF,DewpointF,PressureIn,WindDirection,WindDirectionDegrees,WindSpeedMPH,WindSpeedGustMPH,Humidity,HourlyPrecipIn,Conditions,Clouds,dailyrainin,SoftwareType,DateUTC
2013-06-13 00:02:00,72.0,61.0,29.84,NW,306,7.0,-999.0,68,-99.99,,,-99.99,,2013-06-13 05:02:00,
2013-06-13 00:12:00,70.0,61.0,29.84,WNW,296,8.0,-999.0,73,-99.99,,,-99.99,,2013-06-13 05:12:00,
2013-06-13 00:24:00,70.0,61.0,29.84,WNW,299,7.0,-999.0,73,-99.99,,,-99.99,,2013-06-13 05:24:00,
2013-06-13 00:33:00,70.0,61.0,29.84,WNW,301,6.0,-999.0,73,-99.99,,,-99.99,,2013-06-13 05:33:00,
2013-06-13 00:43:00,70.0,61.0,29.84,WNW,298,7.0,-999.0,73,-99.99,,,-99.99,,2013-06-13 05:43:00,
2013-06-13 00:53:00,70.0,63.0,29.85,WNW,292,13.0,-999.0,77,-99.99,,,-99.99,,2013-06-13 05:53:00,
2013-06-13 01:02:00,70.0,63.0,29.85,WNW,285,7.0,-999.0,77,-99.99,,,-99.99,,2013-06-13 06:02:00,
2013-06-13 01:11:00,70.0,63.0,29.86,WNW,300,9.0,-999.0,77,-99.99,,,-99.99,,2013-06-13 06:11:00,
2013-06-13 01:22:00,70.0,61.0,29.86,NW,316,7.0,-999.0,73,-99.99,,,-99.99,,2013-06-13 06:22:00,
2013-06-13 01:33:00,70.0,61.0,29.86,NW,316,8.0,-999.0,73,-99.99,,,-99.99,,2013-06-13 06:33:00,
2013-06-13 01:44:00,70.0,61.0,29.86,NW,304,6.0,-999.0,73,-99.99,,,-99.99,,2013-06-13 06:44:00,
2013-06-13 01:52:00,70.0,61.0,29.86,WNW,302,6.0,-999.0,73,-99.99,,,-99.99,,2013-06-13 06:52:00,
2013-06-13 02:01:00,70.0,61.0,29.86,NW,319,7.0,-999.0,73,-99.99,,,-99.99,,2013-06-13 07:01:00,
2013-06-13 02:11:00,70.0,63.0,29.87,NW,323,5.0,-999.0,77,-99.99,,,-99.99,,2013-06-13 07:11:00,
2013-06-13 02:22:00,70.0,63.0,29.88,NW,307,9.0,-999.0,77,-99.99,,,-99.99,,2013-06-13 07:22:00,
2013-06-13 02:33:00,70.0,63.0,29.88,NNW,343,7.0,-999.0,77,-99.99,,,-99.99,,2013-06-13 07:33:00,
2013-06-13 02:42:00,70.0,63.0,29.88,NNW,346,5.0,-999.0,77,-99.99,,,-99.99,,2013-06-13 07:42:00,
2013-06-13 02:52:00,70.0,63.0,29.88,NNW,342,2.0,-999.0,77,-99.99,,,-99.99,,2013-06-13 07:52:00,
2013-06-13 03:01:00,70.0,63.0,29.88,NW,324,5.0,-999.0,77,-99.99,,,-99.99,,2013-06-13 08:01:00,
2013-06-13 03:11:00,72.0,63.0,29.88,NW,318,5.0,-999.0,73,-99.99,,,-99.99,,2013-06-13 08:11:00,
2013-06-13 03:22:00,72.0,63.0,29.89,NNW,333,3.0,-999.0,73,-99.99,,,-99.99,,2013-06-13 08:22:00,
2013-06-13 03:32:00,72.0,64.0,29.89,North,350,5.0,-999.0,78,-99.99,,,-99.99,,2013-06-13 08:32:00,
2013-06-13 03:43:00,72.0,64.0,29.90,North,350,5.0,-999.0,78,-99.99,,,-99.99,,2013-06-13 08:43:00,
2013-06-13 03:52:00,70.0,63.0,29.90,NNW,341,5.0,-999.0,77,-99.99,,,-99.99,,2013-06-13 08:52:00,
2013-06-13 04:02:00,70.0,63.0,29.91,NNW,344,2.0,-999.0,77,-99.99,,,-99.99,,2013-06-13 09:02:00,
2013-06-13 04:11:00,70.0,63.0,29.91,NW,325,5.0,-999.0,77,-99.99,,,-99.99,,2013-06-13 09:11:00,
2013-06-13 04:22:00,70.0,64.0,29.92,NW,320,5.0,-999.0,82,-99.99,,,-99.99,,2013-06-13 09:22:00,
2013-06-13 04:32:00,70.0,64.0,29.92,NW,316,3.0,-999.0,82,-99.99,,,-99.99,,2013-06-13 09:32:00,
2013-06-13 04:42:00,70.0,64.0,29.92,North,349,5.0,-999.0,82,-99.99,,,-99.99,,2013-06-13 09:42:00,
2013-06-13 04:52:00,70.0,63.0,29.93,NE,46,2.0,-999.0,77,-99.99,,,-99.99,,2013-06-13 09:52:00,
2013-06-13 05:01:00,70.0,63.0,29.94,NW,314,5.0,-999.0,77,-99.99,,,-99.99,,2013-06-13 10:01:00,
2013-06-13 05:11:00,70.0,63.0,29.94,North,8,3.0,-999.0,77,-99.99,,,-99.99,,2013-06-13 10:11:00,
2013-06-13 05:22:00,68.0,63.0,29.94,NNE,14,2.0,-999.0,82,-99.99,,,-99.99,,2013-06-13 10:22:00,
2013-06-13 05:33:00,68.0,63.0,29.94,North,352,3.0,-999.0,82,-99.99,,,-99.99,,2013-06-13 10:33:00,
2013-06-13 05:43:00,68.0,63.0,29.95,North,351,2.0,-999.0,82,-99.99,,,-99.99,,2013-06-13 10:43:00,
2013-06-13 05:53:00,68.0,63.0,29.97,North,0,2.0,-999.0,82,-99.99,,,-99.99,,2013-06-13 10:53:00,
2013-06-13 06:02:00,68.0,63.0,29.97,NNW,329,3.0,-999.0,82,-99.99,,,-99.99,,2013-06-13 11:02:00,
2013-06-13 06:11:00,66.0,63.0,29.98,NNW,340,3.0,-999.0,88,-99.99,,,-99.99,,2013-06-13 11:11:00,
2013-06-13 06:23:00,66.0,63.0,29.98,North,2,2.0,-999.0,88,-99.99,,,-99.99,,2013-06-13 11:23:00,
2013-06-13 06:32:00,66.0,63.0,29.98,ENE,62,1.0,-999.0,88,-99.99,,,-99.99,,2013-06-13 11:32:00,
2013-06-13 06:42:00,66.0,63.0,29.99,North,349,2.0,-999.0,88,-99.99,,,-99.99,,2013-06-13 11:42:00,
2013-06-13 06:52:00,66.0,63.0,29.99,NE,38,2.0,-999.0,88,-99.99,,,-99.99,,2013-06-13 11:52:00,
2013-06-13 07:01:00,66.0,63.0,30.00,NE,38,2.0,-999.0,88,-99.99,,,-99.99,,2013-06-13 12:01:00,
2013-06-13 07:11:00,68.0,63.0,30.00,North,0,7.0,-999.0,82,-99.99,,,-99.99,,2013-06-13 12:11:00,
2013-06-13 07:22:00,68.0,63.0,30.00,North,351,5.0,-999.0,82,-99.99,,,-99.99,,2013-06-13 12:22:00,
2013-06-13 07:35:00,70.0,63.0,30.00,NNE,12,3.0,-999.0,77,-99.99,,,-99.99,,2013-06-13 12:35:00,
2013-06-13 07:42:00,70.0,63.0,30.00,North,0,5.0,-999.0,77,-99.99,,,-99.99,,2013-06-13 12:42:00,
2013-06-13 07:52:00,70.0,63.0,30.00,NNW,337,3.0,-999.0,77,-99.99,,,-99.99,,2013-06-13 12:52:00,
2013-06-13 08:01:00,70.0,63.0,30.01,NNE,20,7.0,-999.0,77,-99.99,,,-99.99,,2013-06-13 13:01:00,
2013-06-13 08:11:00,70.0,63.0,30.01,NNE,32,8.0,-999.0,77,-99.99,,,-99.99,,2013-06-13 13:11:00,
2013-06-13 08:21:00,72.0,63.0,30.02,NNE,19,7.0,-999.0,73,-99.99,,,-99.99,,2013-06-13 13:21:00,
2013-06-13 08:32:00,72.0,63.0,30.02,NNE,23,6.0,-999.0,73,-99.99,,,-99.99,,2013-06-13 13:32:00,
2013-06-13 08:43:00,72.0,63.0,30.03,North,9,7.0,-999.0,73,-99.99,,,-99.99,,2013-06-13 13:43:00,
2013-06-13 08:53:00,72.0,63.0,30.03,NNE,12,3.0,-999.0,73,-99.99,,,-99.99,,2013-06-13 13:53:00,
2013-06-13 09:02:00,73.0,63.0,30.03,North,8,3.0,-999.0,68,-99.99,,,-99.99,,2013-06-13 14:02:00,
2013-06-13 09:11:00,73.0,63.0,30.04,North,6,5.0,-999.0,68,-99.99,,,-99.99,,2013-06-13 14:11:00,
2013-06-13 09:22:00,73.0,63.0,30.04,NNE,28,3.0,-999.0,68,-99.99,,,-99.99,,2013-06-13 14:22:00,
2013-06-13 09:33:00,73.0,63.0,30.04,North,4,5.0,-999.0,68,-99.99,,,-99.99,,2013-06-13 14:33:00,
2013-06-13 09:43:00,73.0,63.0,30.04,NNE,18,7.0,-999.0,68,-99.99,,,-99.99,,2013-06-13 14:43:00,
2013-06-13 09:53:00,75.0,63.0,30.04,NNE,22,5.0,-999.0,64,-99.99,,,-99.99,,2013-06-13 14:53:00,
2013-06-13 10:01:00,75.0,63.0,30.05,North,358,2.0,-999.0,64,-99.99,,,-99.99,,2013-06-13 15:01:00,
2013-06-13 10:12:00,75.0,63.0,30.05,NNE,16,5.0,-999.0,64,-99.99,,,-99.99,,2013-06-13 15:12:00,
2013-06-13 10:22:00,75.0,63.0,30.05,NE,35,3.0,-999.0,64,-99.99,,,-99.99,,2013-06-13 15:22:00,
2013-06-13 10:33:00,77.0,63.0,30.05,North,7,3.0,-999.0,61,-99.99,,,-99.99,,2013-06-13 15:33:00,
2013-06-13 10:43:00,75.0,63.0,30.04,NNE,15,6.0,-999.0,64,-99.99,,,-99.99,,2013-06-13 15:43:00,
2013-06-13 10:53:00,77.0,63.0,30.04,North,5,7.0,-999.0,61,-99.99,,,-99.99,,2013-06-13 15:53:00,
2013-06-13 11:02:00,77.0,63.0,30.04,NNW,342,3.0,-999.0,61,-99.99,,,-99.99,,2013-06-13 16:02:00,
2013-06-13 11:12:00,79.0,64.0,30.05,North,358,1.0,-999.0,61,-99.99,,,-99.99,,2013-06-13 16:12:00,
2013-06-13 11:22:00,79.0,63.0,30.05,NNW,348,2.0,-999.0,57,-99.99,,,-99.99,,2013-06-13 16:22:00,
2013-06-13 11:33:00,79.0,63.0,30.05,NE,35,5.0,-999.0,57,-99.99,,,-99.99,,2013-06-13 16:33:00,
2013-06-13 11:43:00,79.0,63.0,30.06,ENE,66,3.0,-999.0,57,-99.99,,,-99.99,,2013-06-13 16:43:00,
2013-06-13 11:53:00,79.0,63.0,30.06,NW,326,6.0,-999.0,57,-99.99,,,-99.99,,2013-06-13 16:53:00,
2013-06-13 12:02:00,79.0,63.0,30.06,NNE,29,2.0,-999.0,57,-99.99,,,-99.99,,2013-06-13 17:02:00,
2013-06-13 12:11:00,81.0,63.0,30.07,ENE,59,3.0,-999.0,54,-99.99,,,-99.99,,2013-06-13 17:11:00,
2013-06-13 12:24:00,81.0,63.0,30.07,NNW,348,3.0,-999.0,54,-99.99,,,-99.99,,2013-06-13 17:24:00,
2013-06-13 12:33:00,81.0,63.0,30.06,East,84,2.0,-999.0,54,-99.99,,,-99.99,,2013-06-13 17:33:00,
2013-06-13 12:43:00,81.0,63.0,30.06,NNE,16,5.0,-999.0,54,-99.99,,,-99.99,,2013-06-13 17:43:00,
2013-06-13 12:53:00,81.0,63.0,30.06,NW,325,2.0,-999.0,54,-99.99,,,-99.99,,2013-06-13 17:53:00,
2013-06-13 13:02:00,82.0,63.0,30.06,NE,39,2.0,-999.0,51,-99.99,,,-99.99,,2013-06-13 18:02:00,
2013-06-13 13:11:00,82.0,63.0,30.06,NE,47,1.0,-999.0,51,-99.99,,,-99.99,,2013-06-13 18:11:00,
2013-06-13 13:22:00,82.0,63.0,30.06,NNE,29,2.0,-999.0,51,-99.99,,,-99.99,,2013-06-13 18:22:00,
2013-06-13 13:33:00,82.0,61.0,30.06,NW,308,2.0,-999.0,48,-99.99,,,-99.99,,2013-06-13 18:33:00,
2013-06-13 13:43:00,82.0,61.0,30.05,North,353,3.0,-999.0,48,-99.99,,,-99.99,,2013-06-13 18:43:00,
2013-06-13 13:52:00,82.0,61.0,30.05,NNE,31,7.0,-999.0,48,-99.99,,,-99.99,,2013-06-13 18:52:00,
2013-06-13 14:01:00,82.0,61.0,30.05,NNW,336,2.0,-999.0,48,-99.99,,,-99.99,,2013-06-13 19:01:00,
2013-06-13 14:11:00,82.0,61.0,30.06,NNE,24,3.0,-999.0,48,-99.99,,,-99.99,,2013-06-13 19:11:00,
2013-06-13 14:22:00,84.0,63.0,30.05,ENE,77,3.0,-999.0,48,-99.99,,,-99.99,,2013-06-13 19:22:00,
2013-06-13 14:33:00,82.0,59.0,30.05,NE,52,3.0,-999.0,45,-99.99,,,-99.99,,2013-06-13 19:33:00,
2013-06-13 14:43:00,82.0,61.0,30.05,East,97,2.0,-999.0,48,-99.99,,,-99.99,,2013-06-13 19:43:00,
2013-06-13 14:53:00,84.0,63.0,30.04,NE,46,2.0,-999.0,48,-99.99,,,-99.99,,2013-06-13 19:53:00,
2013-06-13 15:01:00,84.0,61.0,30.04,North,10,2.0,-999.0,45,-99.99,,,-99.99,,2013-06-13 20:01:00,
2013-06-13 15:11:00,84.0,61.0,30.04,NE,49,5.0,-999.0,45,-99.99,,,-99.99,,2013-06-13 20:11:00,
2013-06-13 15:22:00,84.0,61.0,30.03,NE,35,5.0,-999.0,45,-99.99,,,-99.99,,2013-06-13 20:22:00,
2013-06-13 15:33:00,84.0,57.0,30.03,North,355,6.0,-999.0,39,-99.99,,,-99.99,,2013-06-13 20:33:00,
2013-06-13 15:44:00,84.0,59.0,30.03,North,356,5.0,-999.0,42,-99.99,,,-99.99,,2013-06-13 20:44:00,
2013-06-13 15:53:00,86.0,61.0,30.02,NNW,336,5.0,-999.0,42,-99.99,,,-99.99,,2013-06-13 20:53:00,
2013-06-13 16:02:00,86.0,61.0,30.03,WNW,288,2.0,-999.0,42,-99.99,,,-99.99,,2013-06-13 21:02:00,
2013-06-13 16:11:00,84.0,59.0,30.03,West,271,5.0,-999.0,42,-99.99,,,-99.99,,2013-06-13 21:11:00,
2013-06-13 16:22:00,84.0,61.0,30.03,NNE,27,2.0,-999.0,45,-99.99,,,-99.99,,2013-06-13 21:22:00,
2013-06-13 16:34:00,82.0,61.0,30.03,ENE,61,1.0,-999.0,48,-99.99,,,-99.99,,2013-06-13 21:34:00,
2013-06-13 16:43:00,84.0,61.0,30.03,NE,40,1.0,-999.0,45,-99.99,,,-99.99,,2013-06-13 21:43:00,
2013-06-13 16:52:00,84.0,61.0,30.03,NE,40,1.0,-999.0,45,-99.99,,,-99.99,,2013-06-13 21:52:00,
2013-06-13 17:02:00,84.0,61.0,30.03,NE,40,1.0,-999.0,45,-99.99,,,-99.99,,2013-06-13 22:02:00,
2013-06-13 17:11:00,84.0,61.0,30.03,NE,40,1.0,-999.0,45,-99.99,,,-99.99,,2013-06-13 22:11:00,
2013-06-13 17:22:00,84.0,61.0,30.03,NE,40,1.0,-999.0,45,-99.99,,,-99.99,,2013-06-13 22:22:00,
2013-06-13 17:52:00,84.0,61.0,30.06,NW,314,5.0,-999.0,45,-99.99,,,-99.99,,2013-06-13 22:52:00,
2013-06-13 18:02:00,84.0,61.0,30.06,WNW,287,6.0,-999.0,45,-99.99,,,-99.99,,2013-06-13 23:02:00,
2013-06-13 18:11:00,84.0,61.0,30.06,NW,318,2.0,-999.0,45,-99.99,,,-99.99,,2013-06-13 23:11:00,
2013-06-13 18:22:00,84.0,61.0,30.06,North,11,2.0,-999.0,45,-99.99,,,-99.99,,2013-06-13 23:22:00,
2013-06-13 18:32:00,84.0,61.0,30.06,WNW,301,3.0,-999.0,45,-99.99,,,-99.99,,2013-06-13 23:32:00,
2013-06-13 18:43:00,84.0,63.0,30.06,West,280,5.0,-999.0,48,-99.99,,,-99.99,,2013-06-13 23:43:00,
2013-06-13 18:52:00,84.0,63.0,30.06,WNW,301,3.0,-999.0,48,-99.99,,,-99.99,,2013-06-13 23:52:00,
2013-06-13 19:01:00,82.0,61.0,30.06,NW,304,2.0,-999.0,48,-99.99,,,-99.99,,2013-06-14 00:01:00,
2013-06-13 19:11:00,82.0,61.0,30.06,NNE,31,2.0,-999.0,48,-99.99,,,-99.99,,2013-06-14 00:11:00,
2013-06-13 19:22:00,82.0,61.0,30.06,WNW,295,2.0,-999.0,48,-99.99,,,-99.99,,2013-06-14 00:22:00,
2013-06-13 19:34:00,82.0,61.0,30.06,WNW,296,2.0,-999.0,48,-99.99,,,-99.99,,2013-06-14 00:34:00,
2013-06-13 19:43:00,82.0,63.0,30.06,NW,305,2.0,-999.0,51,-99.99,,,-99.99,,2013-06-14 00:43:00,
2013-06-13 19:53:00,81.0,63.0,30.05,WNW,288,3.0,-999.0,54,-99.99,,,-99.99,,2013-06-14 00:53:00,
2013-06-13 20:01:00,81.0,63.0,30.05,West,278,2.0,-999.0,54,-99.99,,,-99.99,,2013-06-14 01:01:00,
2013-06-13 20:11:00,81.0,63.0,30.04,WNW,282,2.0,-999.0,54,-99.99,,,-99.99,,2013-06-14 01:11:00,
2013-06-13 20:22:00,81.0,63.0,30.04,SW,222,0.0,-999.0,54,-99.99,,,-99.99,,2013-06-14 01:22:00,
2013-06-13 20:32:00,79.0,63.0,30.03,North,0,0.0,-999.0,57,-99.99,,,-99.99,,2013-06-14 01:32:00,
2013-06-13 20:43:00,79.0,63.0,30.02,East,90,1.0,-999.0,57,-99.99,,,-99.99,,2013-06-14 01:43:00,
2013-06-13 20:52:00,79.0,63.0,30.02,SE,143,0.0,-999.0,57,-99.99,,,-99.99,,2013-06-14 01:52:00,
2013-06-13 21:02:00,77.0,63.0,30.02,North,0,0.0,-999.0,61,-99.99,,,-99.99,,2013-06-14 02:02:00,
2013-06-13 21:11:00,77.0,63.0,30.01,NW,315,0.0,-999.0,61,-99.99,,,-99.99,,2013-06-14 02:11:00,
2013-06-13 21:22:00,75.0,63.0,30.00,North,0,0.0,-999.0,64,-99.99,,,-99.99,,2013-06-14 02:22:00,
2013-06-13 21:32:00,75.0,63.0,30.00,North,0,0.0,-999.0,64,-99.99,,,-99.99,,2013-06-14 02:32:00,
2013-06-13 21:43:00,75.0,63.0,30.00,ESE,114,1.0,-999.0,64,-99.99,,,-99.99,,2013-06-14 02:43:00,
2013-06-13 21:52:00,73.0,63.0,30.00,North,0,0.0,-999.0,68,-99.99,,,-99.99,,2013-06-14 02:52:00,
2013-06-13 22:02:00,73.0,63.0,30.00,North,0,0.0,-999.0,68,-99.99,,,-99.99,,2013-06-14 03:02:00,
2013-06-13 22:12:00,73.0,63.0,30.00,North,0,0.0,-999.0,68,-99.99,,,-99.99,,2013-06-14 03:12:00,
2013-06-13 22:22:00,73.0,63.0,30.00,North,0,0.0,-999.0,68,-99.99,,,-99.99,,2013-06-14 03:22:00,
2013-06-13 22:34:00,73.0,63.0,30.00,North,0,0.0,-999.0,68,-99.99,,,-99.99,,2013-06-14 03:34:00,
2013-06-13 22:43:00,73.0,63.0,30.00,East,90,0.0,-999.0,68,-99.99,,,-99.99,,2013-06-14 03:43:00,
2013-06-13 22:52:00,73.0,63.0,30.00,North,0,0.0,-999.0,68,-99.99,,,-99.99,,2013-06-14 03:52:00,
2013-06-13 23:01:00,73.0,63.0,30.01,North,0,0.0,-999.0,68,-99.99,,,-99.99,,2013-06-14 04:01:00,
2013-06-13 23:12:00,73.0,63.0,30.01,North,0,0.0,-999.0,68,-99.99,,,-99.99,,2013-06-14 04:12:00,
2013-06-13 23:22:00,73.0,63.0,30.01,North,0,0.0,-999.0,68,-99.99,,,-99.99,,2013-06-14 04:22:00,
2013-06-13 23:33:00,73.0,63.0,30.03,North,0,0.0,-999.0,68,-99.99,,,-99.99,,2013-06-14 04:33:00,
2013-06-13 23:43:00,73.0,63.0,30.04,North,0,0.0,-999.0,68,-99.99,,,-99.99,,2013-06-14 04:43:00,
2013-06-13 23:53:00,72.0,63.0,30.04,North,0,0.0,-999.0,73,-99.99,,,-99.99,,2013-06-14 04:53:00,